Theta_e
330 329 329 328 328 328 328 328 328 328 326 325 325 326 326 327 327 327 326 325 327 327 325 326 328 329 329 326 326 328 329 329 329 328 326 326 327 327 328 327 327 326 326 325 326 326 326 326 326 325 323 323 323 322 322 322 320 318 319 319 319 317 317
329 329 329 327 327 328 327 327 327 327 325 325 326 327 327 328 328 328 328 328 329 329 327 326 327 329 329 327 327 328 328 328 328 328 326 326 327 327 327 327 327 327 326 326 327 326 326 326 326 323 321 322 323 322 322 321 319 320 321 321 320 318 316
329 329 329 327 327 327 326 325 326 326 326 326 327 328 329 329 329 329 328 328 329 328 328 327 327 328 328 327 328 328 328 327 327 327 326 325 326 327 327 327 327 327 327 327 327 327 326 326 326 323 321 321 322 322 321 320 319 320 322 322 320 319 316
329 328 328 327 327 327 325 325 327 327 328 328 328 328 329 330 329 329 329 329 329 328 329 329 328 328 329 328 328 328 328 328 328 328 327 326 327 327 327 327 327 327 327 327 327 327 326 326 325 324 321 321 322 321 320 319 318 319 321 321 320 318 316
328 328 327 328 327 327 326 327 328 328 328 329 329 329 329 330 330 330 329 330 330 330 330 330 329 329 328 328 327 327 329 329 328 327 326 327 327 327 327 327 327 327 327 326 326 326 326 325 325 324 322 320 320 320 318 318 317 317 319 319 318 316 314
328 328 327 327 326 325 325 325 327 328 329 329 329 329 330 330 329 329 330 330 330 330 331 330 329 329 328 327 327 327 328 328 327 326 326 327 328 327 327 327 326 325 326 327 326 327 326 325 325 324 323 321 320 318 316 317 317 316 316 316 316 315 313
328 328 327 324 323 323 322 323 326 328 328 327 328 328 328 329 329 328 329 329 329 330 330 329 329 328 328 328 327 327 327 327 327 326 325 326 327 327 327 327 325 324 326 327 326 326 326 326 325 324 322 321 319 316 315 316 316 315 315 315 314 313 312
327 328 327 324 323 324 325 326 327 328 327 327 328 328 327 327 328 327 328 328 328 328 329 329 328 327 327 328 328 327 326 326 327 326 325 325 325 326 327 327 324 323 325 326 326 325 326 326 324 323 322 319 316 315 316 316 316 315 314 314 314 313 312
327 328 328 326 326 327 327 327 328 329 329 328 328 327 326 325 325 324 325 327 327 327 328 328 327 326 326 326 327 327 326 326 326 325 324 324 324 325 326 326 324 323 324 325 324 324 325 324 324 323 322 320 315 314 316 316 315 315 314 314 313 312 312
328 328 328 327 328 328 328 328 329 329 329 327 326 325 324 322 322 322 322 324 325 326 327 327 327 326 324 324 327 328 327 326 326 325 323 323 324 325 326 325 324 324 324 324 324 324 324 324 324 323 321 320 316 313 314 315 314 314 313 313 313 312 311
327 326 327 327 327 327 327 328 328 327 326 325 323 322 321 321 322 323 325 325 324 324 326 327 327 326 324 323 325 327 327 327 327 325 323 322 323 324 324 324 324 324 324 325 324 324 324 324 324 322 319 318 316 313 313 313 313 313 312 312 312 311 309
327 325 326 327 327 326 325 326 326 324 323 323 322 321 320 321 323 325 327 327 324 322 325 328 328 326 324 323 324 325 326 326 326 325 324 323 322 322 324 324 324 324 324 325 324 324 324 324 324 322 318 315 314 313 312 312 312 311 311 312 312 310 310
328 327 328 329 328 326 325 324 324 323 322 321 318 318 318 320 324 326 326 326 323 321 322 324 325 324 324 325 324 323 324 325 326 325 324 324 322 322 323 324 324 324 323 324 323 323 324 324 323 322 319 315 314 315 313 311 311 311 311 311 311 310 311
328 328 330 330 328 327 325 324 323 321 319 316 315 317 319 320 323 324 323 323 322 323 324 324 323 321 320 323 324 323 323 324 325 324 324 324 323 322 322 322 323 324 324 324 323 322 323 324 323 322 320 317 318 320 316 311 311 311 310 311 311 310 311
328 329 330 329 328 328 325 322 320 318 318 316 315 318 320 322 322 322 323 325 324 324 325 326 326 323 320 321 324 323 323 324 325 324 324 323 323 323 322 322 323 323 323 324 323 323 324 324 324 322 320 319 320 321 318 313 312 312 311 311 311 311 311
329 329 330 329 329 326 321 319 318 318 317 317 318 319 320 322 323 323 324 325 326 326 325 325 326 326 324 323 323 323 323 324 324 325 324 323 323 323 323 322 322 322 323 323 323 324 324 324 323 321 320 319 319 318 317 315 314 313 311 311 312 312 311
329 330 330 329 327 323 319 318 318 318 318 320 321 319 318 321 324 323 323 324 325 325 324 323 324 325 325 326 325 324 323 323 323 324 324 323 322 323 322 322 322 323 323 323 323 324 324 324 323 320 320 320 319 317 316 315 315 314 312 312 312 312 311
330 330 329 328 326 322 319 318 317 317 319 322 322 319 318 322 323 322 321 321 322 323 323 323 324 323 324 324 324 324 324 323 323 323 323 322 323 323 323 323 323 323 324 323 323 323 324 324 323 320 320 320 318 316 315 315 315 315 314 313 312 312 311
330 329 328 328 325 322 320 319 318 318 320 321 321 318 319 321 321 321 321 321 321 323 324 324 324 323 323 323 322 322 323 323 322 322 322 322 323 323 324 325 324 324 324 324 323 323 323 324 323 321 320 319 317 315 314 315 316 316 315 314 313 313 312
329 329 328 328 325 322 320 319 318 319 320 320 320 319 320 321 320 321 323 323 322 323 323 323 323 323 323 323 323 322 322 322 322 323 323 322 321 322 323 324 325 325 324 324 324 324 323 323 322 321 321 319 316 314 313 315 316 316 316 315 314 314 314
328 329 328 328 326 323 321 321 319 320 321 320 320 320 321 321 320 321 322 322 323 323 322 322 322 322 322 322 322 322 322 322 322 322 323 322 322 322 322 322 323 324 324 324 324 323 323 323 322 321 321 319 316 314 314 315 317 317 316 316 316 315 315
328 328 328 328 326 323 322 321 321 322 322 321 320 320 321 321 320 321 321 321 321 321 321 321 321 322 322 322 322 322 321 321 321 322 322 322 322 322 321 321 321 323 324 325 324 323 323 323 322 321 320 319 317 316 314 314 316 317 316 317 317 317 316
326 328 328 328 326 324 323 323 323 324 322 320 319 320 320 320 320 320 320 320 319 320 320 321 320 321 322 322 322 322 321 321 321 321 321 321 321 321 321 321 321 322 323 324 324 323 323 322 321 321 320 319 318 316 315 315 316 317 316 317 317 318 318
326 327 327 327 326 325 325 324 324 324 321 319 319 319 319 320 320 320 320 319 319 319 319 320 320 320 320 321 321 321 322 321 321 321 320 320 320 320 320 320 320 320 321 321 322 322 322 322 322 321 320 319 319 317 316 317 317 318 317 317 317 318 318
327 327 327 327 326 326 325 325 324 322 320 319 318 318 319 320 320 320 320 319 319 319 318 318 319 319 319 319 320 321 321 320 320 320 319 320 320 319 319 320 320 320 320 320 320 320 321 321 321 321 321 320 320 319 319 318 318 318 318 318 318 318 318
327 327 327 326 326 325 325 324 322 320 319 318 317 318 319 319 319 319 319 318 317 317 318 317 317 318 319 319 320 320 320 320 320 320 320 320 319 319 319 320 320 319 319 319 319 319 319 319 319 320 321 321 321 320 319 319 319 319 319 318 318 318 318
326 327 327 326 325 325 324 322 320 318 318 317 317 317 318 318 318 318 318 317 314 312 315 316 316 317 318 318 319 319 319 319 319 319 320 319 319 319 319 319 319 318 317 317 318 318 318 317 317 317 319 320 320 320 319 319 319 318 319 318 318 318 319
325 325 325 325 325 324 322 320 319 318 318 317 317 317 317 317 318 318 318 318 312 307 309 312 314 315 316 317 318 317 318 319 320 320 320 320 320 320 319 319 318 318 318 317 317 316 316 317 317 317 317 318 318 319 318 318 318 318 318 317 317 317 317
325 325 325 324 323 322 321 320 319 319 318 317 317 318 318 318 318 318 317 315 310 307 308 309 310 311 312 314 316 316 318 320 320 320 320 320 320 320 320 320 319 319 319 319 318 317 316 316 317 317 317 317 317 317 316 316 316 316 315 315 314 314 314
323 324 324 323 322 321 320 320 320 319 318 318 319 319 319 318 317 316 315 313 312 311 311 310 310 309 309 310 313 316 318 320 320 320 320 320 320 321 321 320 320 319 319 320 319 318 317 317 318 317 316 316 315 315 315 315 315 315 315 315 315 314 314
319 321 322 322 321 322 321 321 321 320 320 320 319 319 318 317 315 314 314 313 313 313 313 312 312 311 311 311 313 315 316 317 318 319 319 319 320 320 320 320 320 319 319 319 319 318 318 317 317 317 317 316 316 316 316 316 316 316 316 316 316 316 317
313 317 320 319 319 320 320 320 320 320 319 318 317 317 316 315 314 315 314 314 314 314 313 313 313 313 313 315 315 316 316 317 318 318 318 319 319 319 319 319 319 318 317 317 316 317 317 317 316 316 315 315 314 314 313 313 312 312 312 311 312 312 312
311 313 316 315 315 316 316 316 316 317 316 315 315 314 314 314 314 314 314 314 314 314 313 313 313 313 314 315 316 316 317 318 318 317 317 317 316 316 316 316 316 315 315 314 314 314 314 313 312 311 310 310 309 308 308 307 307 307 307 307 307 307 307
310 311 312 313 313 313 314 314 314 314 314 313 313 313 313 314 313 313 313 313 314 314 315 315 314 314 314 315 315 315 316 316 316 315 315 314 314 314 313 312 312 312 311 311 310 310 309 308 308 307 307 306 305 305 304 303 302 302 302 302 303 302 302
308 309 310 311 312 312 311 312 312 312 312 311 311 312 312 312 312 312 311 311 312 314 315 315 315 315 315 315 315 315 315 314 313 312 312 312 312 312 311 310 309 309 309 309 308 308 307 307 305 304 302 301 300 300 300 299 299 299 299 299 299 299 299
305 306 307 308 309 309 309 309 309 309 309 308 308 309 309 308 309 309 309 308 309 310 311 312 313 313 314 314 315 315 315 314 313 312 311 311 310 310 309 308 307 306 306 305 304 303 302 301 300 299 299 299 299 300 300 300 300 300 300 300 300 300 301
303 303 304 305 306 306 306 306 306 306 306 306 307 307 308 307 307 307 306 305 305 304 304 304 305 305 305 306 307 309 310 311 311 309 307 305 304 304 304 302 301 300 300 299 299 299 299 299 299 299 300 300 300 301 301 301 301 301 301 301 301 302 302
Wind_Speed
16 18 18 17 18 19 19 20 21 21 21 18 16 14 12 11 12 11 10 12 14 14 13 12 12 11 12 12 12 15 16 16 16 17 19 19 20 20 20 19 15 12 17 20 19 19 21 22 19 16 13 12 13 15 12 8 5 7 8 7 5 4 3
17 18 19 19 20 20 19 19 21 21 20 18 16 14 12 11 11 10 10 12 15 14 12 12 12 12 13 13 13 15 15 14 15 16 18 19 19 20 20 19 15 14 19 19 16 17 19 24 22 16 13 12 15 15 12 8 7 8 8 6 4 3 4
20 21 22 21 22 21 20 19 19 19 18 17 16 13 11 11 10 9 10 12 13 12 12 12 13 13 13 12 12 15 14 14 15 17 18 18 19 20 20 18 16 18 21 20 18 18 19 22 22 19 16 18 21 17 11 10 9 8 8 6 4 3 2
24 24 25 24 23 21 20 19 17 17 16 15 14 13 12 11 11 10 10 12 12 13 13 13 13 13 12 11 12 14 14 14 15 17 18 18 20 22 20 17 15 18 21 21 21 20 19 20 21 22 20 20 22 18 13 13 10 9 11 9 5 2 2
26 25 25 24 23 21 20 18 17 17 16 15 14 14 13 12 12 11 11 12 12 13 13 13 13 12 12 11 11 13 13 14 15 16 17 18 21 23 21 18 15 15 18 19 19 20 19 17 20 24 22 20 19 15 13 14 12 10 11 9 5 5 3
26 24 23 24 23 21 21 20 19 18 18 18 16 14 13 13 12 11 11 10 9 10 10 11 12 12 12 11 10 12 13 13 14 15 15 18 21 21 20 18 16 15 17 18 17 18 18 17 18 21 21 19 17 14 13 15 16 12 10 9 7 7 4
26 24 23 23 23 22 22 21 20 19 18 17 16 14 13 13 12 11 10 9 8 8 9 10 11 11 12 12 12 12 12 12 14 13 13 17 19 20 20 19 17 15 17 18 17 17 18 18 18 18 18 18 15 15 17 17 17 14 13 11 8 7 4
25 24 23 23 23 22 22 21 20 18 16 15 15 14 14 13 12 11 10 10 9 8 8 9 11 12 13 12 12 12 12 13 14 13 14 16 18 20 20 20 18 15 16 19 17 17 18 18 18 18 18 18 16 17 19 18 17 15 15 14 9 7 5
25 25 24 23 22 21 21 21 19 16 15 15 14 13 13 12 11 10 11 10 9 9 9 9 10 12 13 13 12 13 14 14 14 13 14 16 17 18 20 20 19 15 15 18 18 17 18 19 19 19 18 16 17 20 20 17 18 18 17 16 13 9 7
27 27 26 24 22 20 19 18 17 16 15 13 12 12 12 10 10 10 10 10 10 9 9 9 9 10 11 12 12 13 14 14 14 14 14 15 17 18 19 19 19 17 15 17 19 17 18 21 20 18 19 16 13 19 23 20 20 20 19 17 13 10 8
29 28 26 24 22 21 19 18 17 16 14 11 11 11 11 10 11 10 9 8 9 10 10 10 10 10 10 11 11 11 12 12 13 15 14 15 17 18 17 16 17 17 17 17 18 17 18 23 22 19 20 19 13 14 20 20 20 20 19 19 15 10 7
29 29 27 25 23 22 20 19 16 14 12 11 11 11 11 12 13 12 10 8 7 10 12 12 11 10 10 12 12 12 13 13 14 16 16 16 16 17 17 16 16 17 17 17 18 17 18 22 25 21 20 20 16 14 16 18 20 21 19 19 16 10 7
30 30 29 27 25 23 21 19 16 14 13 13 12 12 13 15 17 15 11 9 9 11 12 12 12 11 11 11 12 13 14 14 14 16 17 16 15 16 17 16 16 16 17 18 18 18 19 22 26 24 21 22 19 15 17 19 20 22 20 17 13 9 8
30 30 31 29 26 25 22 20 17 15 15 14 13 14 14 15 16 14 10 9 10 11 12 12 11 11 12 11 11 12 13 13 15 15 16 16 15 16 17 17 17 16 16 18 17 18 20 21 24 24 22 22 18 12 16 21 20 20 20 17 12 10 10
29 30 31 30 27 25 23 20 18 16 15 14 14 14 14 15 14 12 11 10 9 9 11 13 11 10 11 11 10 11 12 13 15 15 15 15 15 15 16 15 17 16 15 17 17 18 19 19 21 23 22 20 15 11 15 20 20 19 19 17 14 14 13
28 30 30 29 27 24 22 20 19 17 16 15 15 14 14 16 15 12 11 11 11 9 9 11 12 10 9 10 10 10 11 12 14 15 14 14 14 14 15 15 16 15 14 18 19 17 18 18 19 22 21 16 11 10 14 17 17 17 18 16 15 17 15
28 30 28 26 25 22 22 21 20 18 17 17 16 14 15 18 16 14 13 13 12 10 8 10 13 11 10 11 10 10 10 10 11 12 12 12 12 13 13 14 15 14 13 18 19 18 18 18 19 22 19 14 11 11 14 16 14 14 16 16 16 17 16
28 29 27 25 24 22 21 21 21 20 19 18 16 15 18 18 15 13 12 11 11 11 11 13 14 12 12 11 11 11 11 9 9 10 10 10 9 10 11 12 14 14 14 18 19 17 17 18 21 21 15 12 13 14 14 14 12 10 12 16 17 17 16
28 28 27 26 25 23 21 21 21 21 20 19 17 17 18 16 13 12 11 11 14 16 16 16 14 12 11 11 10 11 11 11 11 11 11 10 8 8 10 12 13 14 15 19 19 16 15 16 19 19 13 11 14 15 13 12 10 9 11 14 18 19 18
29 29 28 27 25 23 23 21 22 22 20 19 18 18 17 14 12 14 14 14 17 19 18 18 17 15 14 12 11 11 11 12 12 12 12 11 11 10 9 10 13 14 15 18 19 17 15 13 15 17 14 13 15 15 14 12 10 12 13 12 15 20 19
29 29 29 27 25 24 24 22 21 21 19 19 20 19 17 14 14 15 15 15 17 18 17 17 18 18 16 16 16 14 11 10 11 13 15 14 13 13 11 9 11 14 16 19 20 19 16 12 12 15 14 12 16 16 15 14 12 13 15 11 11 17 19
28 29 29 27 25 24 24 23 22 21 19 21 23 20 18 17 16 15 16 17 17 17 15 14 16 18 17 18 19 17 14 13 14 16 18 15 13 13 10 8 9 12 15 19 21 21 18 13 12 14 11 9 14 18 17 15 14 14 15 11 8 12 14
30 29 28 27 25 24 25 24 23 22 21 22 23 21 19 18 16 15 16 16 16 16 16 15 15 17 17 16 18 18 16 15 16 17 17 15 12 11 8 7 8 10 11 14 18 20 19 15 12 13 11 8 12 17 17 17 15 14 14 13 10 10 10
33 31 29 27 26 25 26 25 24 23 22 23 23 23 22 19 17 17 17 16 14 14 15 16 15 16 15 13 15 17 17 15 14 13 13 12 11 10 9 8 9 9 9 10 13 16 16 16 14 13 12 10 11 14 15 15 14 13 13 13 12 12 12
33 33 31 28 27 27 27 25 24 24 24 24 24 25 23 19 17 18 17 16 15 14 14 15 16 16 14 12 14 15 15 15 13 11 11 11 11 11 11 11 11 11 11 9 10 12 12 13 13 12 12 12 10 11 12 13 13 13 13 13 13 13 13
30 32 32 29 27 27 27 25 25 26 26 25 26 26 23 20 18 17 16 14 13 13 14 14 16 17 16 15 15 15 15 14 12 10 11 12 13 13 13 14 14 13 11 11 10 11 12 12 11 12 12 12 11 10 10 11 12 13 13 14 15 15 14
27 29 31 29 27 27 27 27 27 28 27 26 26 26 23 20 18 16 16 13 10 11 13 14 15 18 18 17 16 15 15 14 11 10 11 12 15 17 15 14 14 12 11 11 11 11 12 12 13 13 13 14 14 12 12 11 12 13 14 15 16 17 16
27 28 30 30 29 29 29 30 30 29 29 27 26 24 22 20 17 16 15 12 9 10 13 13 14 17 19 19 16 15 15 14 12 12 13 13 17 19 16 15 14 13 11 11 10 11 11 12 12 12 12 12 13 14 15 15 15 16 17 18 19 20 20
28 29 30 31 32 32 33 33 33 31 30 28 26 23 20 18 17 15 14 12 10 12 13 13 14 15 17 19 18 15 15 14 13 13 13 13 15 17 15 14 13 13 12 11 10 11 12 12 11 12 11 11 11 12 14 15 16 17 18 19 20 21 22
29 31 33 34 34 34 34 34 33 32 30 28 25 22 19 17 16 15 14 13 12 12 13 14 14 14 15 16 17 17 17 16 14 13 13 12 12 12 12 12 11 12 12 11 11 12 13 12 12 12 12 12 12 12 13 14 15 16 17 18 19 20 21
27 30 33 33 33 33 32 31 30 29 28 26 22 18 17 16 16 15 15 15 13 13 13 14 14 15 15 15 15 16 16 16 14 14 14 13 11 11 12 11 11 11 11 10 11 11 11 12 12 12 12 12 13 13 14 15 16 17 18 19 20 21 22
23 27 30 29 29 29 28 27 26 24 22 20 17 15 13 13 14 15 15 15 15 14 14 15 15 16 16 16 15 15 15 15 15 15 16 15 13 12 12 12 11 11 10 10 10 10 10 10 10 11 12 13 13 14 15 16 17 18 18 19 19 21 22
21 24 24 22 21 21 19 19 19 18 16 14 12 12 11 10 12 14 14 14 15 15 14 15 16 17 18 18 17 16 16 16 16 16 17 16 15 13 12 12 11 10 10 9 9 9 9 10 11 11 12 13 14 15 16 17 18 19 20 21 22 23 24
19 20 19 15 14 14 13 12 13 12 11 10 9 10 10 10 12 13 13 13 13 14 14 14 15 16 17 18 18 16 16 15 15 15 15 14 13 11 10 9 9 9 9 9 9 10 10 11 12 13 14 15 15 16 17 18 19 20 21 22 23 23 24
18 19 16 13 12 13 13 13 12 12 10 9 9 9 9 9 10 11 11 10 10 11 12 11 12 13 13 15 16 15 15 14 12 12 12 11 10 9 9 9 9 9 10 11 12 13 14 14 14 14 14 14 14 14 15 16 17 18 18 19 19 19 19
17 17 16 15 15 17 17 15 15 15 15 14 13 12 10 8 8 8 8 8 8 8 9 9 9 9 10 10 11 13 14 13 13 12 11 10 10 10 10 11 11 11 12 12 12 12 11 11 11 11 10 10 10 10 11 12 13 13 13 13 12 12 11
16 14 13 12 13 16 18 18 18 18 18 17 15 14 13 11 8 7 7 7 8 8 8 8 7 6 6 6 7 8 10 11 11 10 8 7 7 8 8 9 9 8 8 7 6 5 4 4 3 4 5 5 5 6 7 8 9 10 10 9 8 8 9
Wind_Direction
191 187 181 182 186 182 179 182 185 187 189 191 193 196 199 205 206 205 205 201 199 206 216 212 206 204 200 200 199 197 203 204 201 201 200 197 191 187 188 192 193 185 181 184 182 173 157 145 143 140 143 157 157 160 178 184 154 149 151 149 149 135 121
185 181 176 176 176 176 176 178 181 185 188 191 194 195 195 197 200 201 202 204 202 201 209 210 202 200 197 195 194 194 199 201 198 198 201 201 194 191 190 189 189 178 175 181 183 180 164 150 149 146 148 164 161 165 185 174 138 143 146 145 154 128 108
178 177 172 172 172 173 174 175 179 182 184 188 190 189 189 189 191 194 195 203 204 199 206 207 197 196 194 188 189 193 196 196 194 196 199 199 194 194 193 190 188 179 175 179 181 181 170 159 157 154 155 166 164 163 173 163 147 152 164 179 182 144 88
174 174 171 171 172 175 176 175 178 179 178 183 185 181 182 184 182 180 184 194 195 192 197 195 186 187 188 187 189 189 193 195 193 195 197 197 196 195 193 191 189 186 184 183 182 182 177 170 164 160 160 166 168 166 163 159 152 154 175 190 192 217 304
174 173 171 170 171 173 175 174 175 175 175 179 180 174 174 179 177 173 181 188 188 189 191 182 174 178 182 185 191 189 188 193 195 195 196 198 199 197 195 193 191 194 195 190 186 185 186 181 169 167 170 169 168 165 160 160 154 155 180 192 206 256 276
177 175 171 169 168 167 168 169 169 170 171 174 174 168 169 174 171 169 179 184 182 189 191 176 164 174 183 180 188 193 189 194 197 195 196 199 200 201 202 199 194 196 200 196 189 186 189 185 171 169 176 181 181 171 158 156 153 161 194 209 225 257 271
176 174 169 168 166 163 164 165 165 167 167 166 164 163 166 169 165 162 172 179 174 178 186 174 161 168 182 181 183 192 194 198 197 193 199 202 203 205 205 202 196 194 196 196 192 188 188 185 175 167 166 174 186 175 157 154 158 171 194 209 232 257 262
174 171 168 167 165 161 162 163 163 164 161 159 160 163 165 166 166 160 161 169 170 169 177 176 164 165 176 181 182 187 192 194 193 194 200 204 205 201 200 201 199 195 196 197 195 191 191 186 176 173 169 161 164 167 161 162 172 184 193 197 213 244 265
173 170 165 164 163 160 160 160 159 159 158 160 164 165 166 168 169 161 157 164 166 163 168 173 167 162 170 178 181 184 186 185 189 194 196 199 200 196 197 200 198 196 198 196 196 192 190 184 172 177 187 175 160 163 167 173 180 188 199 197 193 212 253
172 169 164 161 161 159 158 156 156 158 163 168 168 169 172 168 160 154 153 159 160 158 158 165 165 160 166 176 181 185 184 181 188 193 191 195 195 191 197 200 199 201 198 192 194 192 186 182 174 176 192 197 181 167 168 179 184 185 196 203 199 208 232
171 169 165 162 161 160 160 160 162 166 167 165 162 166 171 164 156 155 158 161 161 159 152 154 161 160 164 172 176 185 185 182 190 190 185 188 187 185 191 196 198 201 199 193 192 191 185 181 177 176 185 196 203 181 172 178 184 187 194 201 211 230 229
171 168 166 165 164 165 166 167 168 165 160 156 158 166 168 163 160 161 168 177 172 159 150 150 157 154 158 167 168 175 182 183 188 189 186 189 190 190 192 194 197 197 197 196 191 189 187 181 179 179 182 190 197 194 184 177 179 189 199 201 209 234 239
172 169 168 170 169 169 170 170 167 159 156 157 160 164 164 161 164 169 176 180 171 159 151 150 156 151 154 166 163 164 178 184 181 182 189 195 194 194 195 197 201 200 198 197 192 189 186 182 182 182 183 189 194 201 204 194 183 186 199 208 213 225 236
172 169 170 172 171 172 172 169 165 159 154 154 153 153 153 153 162 169 163 153 150 151 149 148 153 153 154 163 162 162 173 181 176 174 183 190 187 187 194 199 202 203 200 197 192 188 185 184 186 187 188 192 196 210 217 206 191 183 192 210 223 223 226
173 171 173 175 175 174 172 165 162 158 150 147 146 145 144 141 141 141 135 132 137 146 149 150 153 154 154 157 162 166 167 168 170 171 177 182 183 186 191 196 199 201 201 197 191 187 186 187 188 190 192 194 201 225 222 207 197 187 188 204 220 219 218
177 176 176 178 178 174 170 164 159 155 148 145 143 142 144 140 134 135 140 142 143 147 152 155 157 160 159 157 159 166 166 162 163 167 172 175 177 182 186 189 192 195 195 192 190 188 187 189 188 186 188 193 203 220 213 204 202 199 193 198 210 215 216
178 178 179 180 180 174 168 163 159 153 148 145 142 141 141 138 140 152 159 160 163 168 164 152 151 153 155 158 160 159 159 158 155 157 163 166 169 176 182 187 189 193 193 188 186 187 188 190 187 184 186 190 196 206 203 198 204 210 206 202 206 215 221
180 179 181 182 180 175 169 164 158 153 151 148 143 140 140 141 150 161 160 162 172 168 146 132 132 132 134 143 152 156 159 161 161 160 155 152 164 180 186 188 191 193 189 184 184 186 189 192 190 188 194 203 205 210 204 195 199 216 223 217 210 213 223
183 181 183 184 181 175 171 166 158 154 154 150 144 142 141 141 152 159 147 141 148 146 137 135 137 140 142 141 139 144 153 155 154 158 153 143 147 171 183 189 192 191 187 184 185 184 184 189 191 194 206 215 208 205 198 191 194 213 230 225 212 212 221
184 182 184 185 182 176 170 165 159 156 154 149 141 137 135 133 143 158 157 145 142 144 146 149 151 153 157 157 148 140 145 152 156 164 165 153 142 144 155 175 189 192 190 188 186 182 181 187 193 202 218 219 204 196 194 194 195 207 221 222 213 216 220
185 185 186 185 181 175 169 163 160 158 154 147 140 137 143 152 157 161 165 162 154 152 153 153 155 156 154 155 156 152 147 151 159 168 169 160 148 142 141 153 175 183 186 188 187 185 186 192 197 207 222 218 202 197 196 193 186 191 205 212 216 222 222
189 185 185 186 181 173 166 161 160 158 153 148 144 145 156 166 166 160 160 162 160 157 155 153 158 162 158 152 155 158 153 141 136 147 156 154 145 143 145 146 154 162 172 184 192 190 190 196 199 203 210 196 193 201 199 188 178 179 190 196 204 218 224
194 187 183 183 179 170 162 160 162 161 154 149 149 154 162 164 166 167 165 161 159 158 158 155 157 166 169 164 162 164 162 151 141 144 151 151 146 146 149 147 145 148 159 180 196 198 199 204 206 206 208 184 179 194 196 190 187 186 193 198 196 205 220
195 190 182 176 172 166 162 162 165 162 154 152 156 162 167 167 169 177 181 177 169 165 162 159 158 163 169 172 172 171 171 169 163 156 155 158 159 155 154 156 157 161 167 178 195 202 206 212 214 215 221 210 184 185 190 192 195 199 205 209 208 212 223
196 188 179 175 172 168 166 166 166 161 156 157 162 166 171 173 174 182 190 190 186 182 174 167 164 162 160 161 165 164 165 167 165 161 161 168 170 163 162 169 171 173 180 186 194 201 206 213 220 225 229 229 216 204 202 204 207 211 217 220 221 224 231
192 182 176 176 173 168 167 166 164 162 161 163 166 169 174 179 180 185 189 189 190 193 189 179 171 165 159 156 156 154 156 162 161 162 170 174 173 171 170 174 176 176 182 192 199 205 207 210 218 223 224 227 228 221 218 218 219 223 229 231 233 237 243
191 178 176 177 174 171 171 167 163 164 165 166 168 170 175 180 182 184 183 182 186 189 191 189 180 173 168 162 157 156 160 168 166 158 160 162 162 166 170 175 180 179 177 184 192 198 204 210 215 219 221 224 226 225 225 225 226 229 234 238 240 242 247
194 179 173 175 176 176 173 168 165 167 168 167 169 171 175 180 181 180 180 184 184 175 176 181 181 179 178 175 170 164 161 167 169 160 155 153 152 157 162 168 176 177 173 177 186 191 197 205 212 216 220 223 227 231 233 234 235 237 238 241 245 246 247
187 180 173 174 174 171 169 169 169 170 170 169 171 172 174 179 181 181 182 181 171 159 157 163 170 175 181 183 184 177 166 165 169 166 162 161 158 159 162 167 174 177 175 177 186 194 200 204 208 213 216 219 224 232 236 238 240 242 243 245 248 250 251
167 171 169 168 169 166 163 164 166 170 173 172 172 173 174 175 176 178 177 169 161 156 151 151 157 162 168 175 179 177 173 172 173 170 167 168 168 170 173 177 180 182 181 183 187 195 203 208 212 217 221 226 230 233 237 240 241 242 245 248 250 253 256
144 157 157 154 158 161 160 158 160 166 172 171 171 173 175 175 173 173 173 169 166 166 160 153 154 157 158 163 171 176 180 180 176 171 169 168 169 174 182 187 190 190 191 193 194 199 207 214 222 231 236 241 245 246 247 249 249 249 250 251 254 257 259
113 137 146 143 144 151 154 154 155 160 166 170 174 178 178 177 175 173 175 175 173 171 169 165 163 163 161 160 165 174 181 183 176 170 170 172 172 177 186 193 200 204 207 211 214 221 227 233 239 245 249 253 257 259 262 264 265 265 264 264 264 263 263
79 105 123 127 129 135 140 144 149 156 164 170 176 176 172 175 177 172 171 174 174 172 173 172 171 172 171 169 166 166 172 177 176 174 177 180 181 185 193 202 211 219 227 234 241 244 246 250 254 258 263 268 271 274 276 277 277 277 277 276 275 273 272
61 73 88 97 106 114 119 126 137 146 151 155 163 167 167 171 172 164 159 164 169 169 169 172 173 175 178 180 178 174 174 175 175 177 181 184 189 196 207 217 227 240 251 258 262 262 264 267 271 275 278 280 283 285 286 286 285 285 284 284 282 282 282
67 70 79 90 98 102 105 111 119 123 124 127 138 147 152 159 161 156 151 152 159 164 166 170 175 179 183 188 190 191 191 187 184 186 190 194 203 215 228 239 247 254 261 268 272 274 277 281 283 285 287 288 290 291 290 290 289 288 289 290 290 291 291
71 77 83 92 98 97 96 98 103 107 107 106 108 109 108 115 133 144 145 141 141 149 157 165 175 182 187 192 196 200 204 205 208 212 213 214 220 231 243 255 263 266 268 272 277 281 283 285 286 288 291 293 295 296 295 295 295 297 300 302 303 304 300
71 75 79 85 95 99 98 97 97 99 100 98 96 94 90 87 94 108 118 126 131 130 130 141 151 153 157 172 185 195 204 211 219 225 228 225 225 228 235 245 256 266 273 279 286 292 295 295 291 287 287 290 294 297 300 305 310 316 320 320 321 320 313